User: anonymous   Login
Location: Poprad
(49.0500°N, 20.3000°E)
Time: 02:36:02
(UTC+02:00)
Language:

POLYITAN 1 - Orbit

View from above orbital plane
View from above orbital plane
View from above satellite
View from above satellite

Ground track
Ground track

The orbit data is extracted from the following two-line orbital elements,

1 40042U 14033AJ  24109.38638349  .00019568  00000-0  15412-2 0  9995
2 40042  98.0575  71.3227 0013647 345.7951  14.2886 15.00763997533864
Epoch (UTC): 18 April 2024 09:16:23
Eccentricity: 0.0013647
inclination: 98.0575°
perigee height: 555 km
apogee height: 574 km
right ascension of ascending node: 71.3227°
argument of perigee: 345.7951°
revolutions per day: 15.00763997
mean anomaly at epoch: 14.2886°
orbit number at epoch: 53386

The dashed part of the orbit path shows where the satellite is in the earth's shadow,  

DLR